Location: Balsareny
(41.8670°N, 1.8830°E)
Time: 08:35:45
(UTC+02:00)

X-37B - Pass Details

Date: 28 June 2021
Orbit: 383 x 392 km, 45.0° (Epoch: 01 July)

Event Time Altitude Azimuth Distance (km) Brightness Sun altitude
Rises 22:25:56 0° 269° (W) 2,255 5.2 -8.8°
Reaches altitude 10° 22:28:02 10° 275° (W) 1,401 4.2 -9.1°
Maximum altitude 22:31:07 49° 352° (N) 501 1.5 -9.5°
Drops below altitude 10° 22:34:11 10° 69° (ENE) 1,402 3.2 -9.9°
Enters shadow 22:36:06 - 75° (ENE) 2,177 4.1 -10.2°
